Regional Weather Roundup
Issued by NWS Midland/Odessa, TX

Skip options and go directly to product.
Home | Oldest Version | Next Version | Current Version | All | Text Only | Save Text | Print | Product List | Glossary On

Skip product version selection by date and time.   
704
ASUS44 KMAF 270001
RWRMAF
MIDLAND AREA WEATHER ROUNDUP
NATIONAL WEATHER SERVICE MIDLAND TX
700 PM CDT SUN APR 26 2015

...IN SOUTHWEST TEXAS AND SOUTHEAST NEW MEXICO...

CITY           SKY/WX    TMP DP  RH WIND       PRES   REMARKS
ALPINE         SUNNY     69  30  24 NW15G30   29.76R
ANDREWS        PTSUNNY   69  30  23 NW13G18   29.68S
ARTESIA        SUNNY     66  32  28 W30G38    29.65S
BIG SPRING     CLOUDY    79  26  14 NW23G29   29.57S
CARLSBAD       SUNNY     65  33  30 W28G39    29.66F
DRYDEN           N/A     93  13   5 W12       29.48F
FORT STOCKTON  MOSUNNY   72  30  21 NW29G38   29.65R
GUAD PASS      NOT AVBL
HOBBS          MOSUNNY   68  25  19 SW28      29.67F
MARFA          SUNNY     64  28  25 W29G37    29.74F
MIDLAND AIRPK  CLOUDY    74  29  19 NW26G33   29.63R
MIDLAND INTL   CLOUDY    73  29  19 NW24G37   29.62R
ODESSA         CLOUDY    71  28  20 NW22G36   29.64R
PECOS          PTSUNNY   71  27  19 W35G41    29.63S
PRESIDIO       FAIR      79  31  17 MISG      29.60R
SEMINOLE       CLOUDY    68  32  25 NW10      29.69R
SNYDER         PTSUNNY   78  34  20 NW23G30   29.58R
WINK           CLOUDY    70  22  16 W22G30    29.63S
$$
...OTHER STATIONS IN TEXAS...

CITY           SKY/WX    TMP DP  RH WIND       PRES   REMARKS
ABILENE        PTSUNNY   68  59  73 N28G38    29.56R
AMARILLO       CLOUDY    54  51  90 E28G35    29.76R
AUSTIN         PTSUNNY   82  72  71 SE22      29.55R
BROWNSVILLE    CLOUDY    83  78  85 SE13      29.53F HAZE
CORPUS CHRISTI CLOUDY    79  77  94 SE14      29.54F FOG
DALLAS FTW     CLOUDY    77  62  59 NE9       29.56S
DEL RIO        SUNNY     93  45  19 SE13G23   29.42F
EL PASO        PTSUNNY   64  34  32 SW10G21   29.77R
HOUSTON INT    CLOUDY    78  72  81 SE12      29.62S
LUBBOCK        CLOUDY    68  33  27 NW22G31   29.66F
SAN ANGELO     PTSUNNY   88  34  14 SW13G23   29.47F
SAN ANTONIO    PTSUNNY   84  73  69 SE20      29.55S
WACO           PTSUNNY   80  65  59 SE12      29.56S
WICHITA FALLS  NOT AVBL
$$
...OTHER LOCATIONS IN NEW MEXICO...

CITY           SKY/WX    TMP DP  RH WIND       PRES   REMARKS
ALAMAGORDO     PTSUNNY   61  28  29 W18       29.73S
ALBUQUERQUE    PTSUNNY   49  42  77 VRB3      29.77S
CANNON AFB     NOT AVBL
CLOVIS         CLOUDY    64  27  24 SE12      29.68F
HOLLOMAN AFB   NOT AVBL
ROSWELL        MOSUNNY   67  31  26 W18G26    29.63R
RUIDOSO        PTSUNNY   48  32  53 SW9       29.78R
SANTA FE       CLOUDY    46  37  71 W12       29.76R
TRUTH OR CONSE PTSUNNY   60  34  37 W21G30    29.73R
TUCUMCARI      PTSUNNY   68  27  21 SW13G20   29.66R
$$

USA.gov is the U.S. government's official web portal to all federal, state and local government web resources and services.